Weather History for Detroit Metro, MI

Change the Weather History Date:

Saturday, February 26, 2011

  Actual Average Record
Temperature  
Mean Temperature 24 °F 31 °F  
Max Temperature 31 °F 38 °F 69 °F (2000)
Min Temperature 17 °F 23 °F -1 °F (1963)
Degree Days  
Heating Degree Days 41 34  
Month to date heating degree days 1055 965  
Since 1 July heating degree days 4682 4485  
Cooling Degree Days 0 0  
Month to date cooling degree days 0 0  
Year to date cooling degree days 0 0  
Moisture  
Dew Point 24 °F    
Average Humidity 86    
Maximum Humidity 100    
Minimum Humidity 71    
Precipitation  
Precipitation 0.04 in 0.07 in 1.19 in (2013)
Month to date precipitation 2.75 1.86  
Year to date precipitation 4.28 3.82  
Snow  
Snow 0.60 in 0.30 in 7.10 in (1921)
Month to date snowfall 31.7 9.5  
Since 1 July snowfall 58.9 33.2  
Snow Depth 9.00 in    
Sea Level Pressure  
Sea Level Pressure 30.00 in    
Wind  
Wind Speed 6 mph (SSW)    
Max Wind Speed 12 mph    
Max Gust Speed 16 mph    
Visibility 3 miles    
Events Snow    
T = Trace of Precipitation, MM = Missing Value Source: NWS Daily Summary

Daily Weather History Graph

Daily Weather History Graph

Search for Another Location

Airport:

Trip Planner

Search our weather history database for the weather conditions in past years. The results will help you decide how hot, cold, wet, or windy it might be!

Date:

Astronomy

Feb. 26, 2011 Rise Set
Actual Time 7:13 AM EST 6:19 PM EST
Civil Twilight 6:45 AM EST 6:47 PM EST
Nautical Twilight 6:13 AM EST 7:20 PM EST
Astronomical Twilight 5:40 AM EST 7:52 PM EST
Moon 3:19 AM EST (2/26) 12:28 PM EST (2/26)
Length of Visible Light 12h 02m
Length of Day
11h 05m
Waning Crescent, 32% of the Moon is Illuminated
Feb 26
Waning Crescent
Mar 4
New
Mar 12
First Quarter
Mar 19
Full
Mar 26
Last Quarter

Hourly Weather History & Observations

Time (EST) Temp. Windchill Dew Point Humidity Pressure Visibility Wind Dir Wind Speed Gust Speed Precip Events Conditions
12:53 AM 19.4 °F 12.8 °F 12.2 °F 74% 30.14 in 10.0 mi West 4.6 mph - N/A   Overcast
1:53 AM 19.9 °F - 14.0 °F 78% 30.15 in 10.0 mi Calm Calm - N/A   Overcast
2:53 AM 19.0 °F - 14.0 °F 81% 30.16 in 10.0 mi Calm Calm - N/A   Overcast
3:53 AM 21.0 °F 16.2 °F 15.1 °F 78% 30.16 in 10.0 mi WSW 3.5 mph - N/A   Overcast
4:53 AM 21.0 °F - 17.1 °F 85% 30.17 in 3.0 mi Calm Calm - 0.00 in Snow Light Snow
4:59 AM 21.2 °F - 17.6 °F 86% 30.14 in 2.5 mi Calm Calm - 0.00 in Snow Light Snow
5:31 AM 21.2 °F - 17.6 °F 86% 30.13 in 1.8 mi Calm Calm - N/A Snow Light Snow
5:42 AM 21.2 °F 16.4 °F 17.6 °F 86% 30.13 in 2.5 mi South 3.5 mph - 0.01 in Snow Light Snow
5:53 AM 19.9 °F 11.1 °F 18.0 °F 92% 30.15 in 2.5 mi South 6.9 mph - 0.01 in Snow Light Snow
5:55 AM 19.4 °F 10.4 °F 17.6 °F 93% 30.12 in 3.0 mi South 6.9 mph - 0.00 in Snow Light Snow
6:53 AM 18.0 °F 11.1 °F 16.0 °F 92% 30.12 in 8.0 mi South 4.6 mph - 0.00 in   Mostly Cloudy
7:53 AM 17.1 °F 8.7 °F 16.0 °F 96% 30.13 in 6.0 mi South 5.8 mph - N/A   Mostly Cloudy
8:53 AM 19.9 °F 12.1 °F 18.0 °F 92% 30.13 in 7.0 mi SSW 5.8 mph - N/A   Mostly Cloudy
9:15 AM 23.0 °F 13.9 °F 19.4 °F 86% 30.10 in 8.0 mi SSW 8.1 mph - N/A   Overcast
9:53 AM 24.1 °F 15.2 °F 21.0 °F 88% 30.13 in 8.0 mi SSW 8.1 mph - N/A   Overcast
10:36 AM 26.6 °F 18.2 °F 23.0 °F 86% 30.10 in 5.0 mi SSW 8.1 mph - 0.00 in Snow Light Snow
10:53 AM 27.0 °F 18.0 °F 23.0 °F 85% 30.13 in 4.0 mi SSW 9.2 mph - 0.00 in Snow Light Snow
11:33 AM 26.6 °F 18.2 °F 24.8 °F 93% 30.10 in 3.0 mi SSW 8.1 mph - 0.00 in Snow Light Snow
11:41 AM 26.6 °F 18.2 °F 24.8 °F 93% 30.10 in 2.5 mi SSW 8.1 mph - 0.00 in Snow Light Snow
11:53 AM 28.0 °F 20.8 °F 25.0 °F 88% 30.12 in 2.5 mi South 6.9 mph - 0.00 in Snow Light Snow
12:34 PM 28.4 °F 21.2 °F 26.6 °F 93% 30.04 in 3.0 mi South 6.9 mph - 0.00 in Snow Light Snow
12:53 PM 28.9 °F 21.1 °F 26.1 °F 89% 30.04 in 5.0 mi South 8.1 mph - 0.00 in Snow Light Snow
1:04 PM 30.2 °F 22.6 °F 26.6 °F 86% 30.01 in 7.0 mi South 8.1 mph - 0.00 in   Mostly Cloudy
1:53 PM 30.9 °F 23.5 °F 25.0 °F 79% 30.01 in 10.0 mi SSW 8.1 mph - 0.00 in   Mostly Cloudy
2:26 PM 30.2 °F 22.6 °F 26.6 °F 86% 29.98 in 2.5 mi South 8.1 mph - 0.00 in Snow Light Snow
2:43 PM 30.2 °F 21.3 °F 26.6 °F 86% 29.97 in 1.8 mi SSW 10.4 mph - 0.00 in Snow Light Snow
2:53 PM 30.0 °F 21.1 °F 27.0 °F 88% 29.99 in 2.0 mi South 10.4 mph - 0.00 in Snow Light Snow
3:22 PM 30.2 °F 21.3 °F 26.6 °F 86% 29.95 in 1.5 mi South 10.4 mph - 0.00 in Snow Light Snow
3:53 PM 30.0 °F 22.4 °F 27.0 °F 88% 29.96 in 1.5 mi South 8.1 mph - 0.01 in Snow Light Snow
4:24 PM 30.2 °F 22.6 °F 26.6 °F 86% 29.92 in 1.5 mi South 8.1 mph - 0.00 in Snow Light Snow
4:37 PM 28.4 °F 19.7 °F 26.6 °F 93% 29.93 in 1.0 mi South 9.2 mph - 0.00 in Snow Light Snow
4:44 PM 28.4 °F 19.7 °F 26.6 °F 93% 29.92 in 0.8 mi South 9.2 mph - 0.00 in Snow Light Snow
4:51 PM 28.4 °F 19.7 °F 26.6 °F 93% 29.92 in 1.0 mi South 9.2 mph - 0.00 in Snow Light Snow
4:53 PM 28.9 °F 20.4 °F 27.0 °F 92% 29.95 in 1.0 mi South 9.2 mph - 0.00 in Snow Light Snow
5:04 PM 28.4 °F 20.4 °F 26.6 °F 93% 29.92 in 1.0 mi South 8.1 mph - 0.01 in Snow Light Snow
5:25 PM 28.4 °F 19.7 °F 26.6 °F 93% 29.92 in 0.8 mi South 9.2 mph - 0.01 in Snow Light Snow
5:44 PM 28.4 °F 21.2 °F 26.6 °F 93% 29.92 in 1.2 mi South 6.9 mph - 0.02 in Snow Light Snow
5:53 PM 28.9 °F 21.1 °F 27.0 °F 92% 29.95 in 1.2 mi South 8.1 mph - 0.02 in Snow Light Snow
6:03 PM 28.4 °F 20.4 °F 26.6 °F 93% 29.93 in 2.0 mi South 8.1 mph - 0.00 in Snow Light Snow
6:12 PM 28.4 °F 20.4 °F 26.6 °F 93% 29.93 in 1.8 mi South 8.1 mph - 0.00 in Snow Light Snow
6:19 PM 28.4 °F 21.2 °F 26.6 °F 93% 29.93 in 1.8 mi South 6.9 mph - 0.00 in Snow Light Snow
6:44 PM 28.4 °F 21.2 °F 28.4 °F 100% 29.91 in 2.0 mi South 6.9 mph - 0.00 in Snow Light Snow
6:51 PM 28.4 °F 20.4 °F 28.4 °F 100% 29.91 in 2.0 mi South 8.1 mph - 0.00 in Snow Light Snow
6:53 PM 28.9 °F 20.4 °F 28.0 °F 96% 29.93 in 2.0 mi South 9.2 mph - 0.00 in Snow Light Snow
7:06 PM 28.4 °F 20.4 °F 28.4 °F 100% 29.91 in 1.5 mi South 8.1 mph - 0.00 in Snow Light Snow
7:32 PM 28.4 °F 20.4 °F 28.4 °F 100% 29.90 in 2.0 mi South 8.1 mph - 0.00 in Snow Light Snow
7:48 PM 28.4 °F 22.2 °F 28.4 °F 100% 29.90 in 2.0 mi South 5.8 mph - 0.00 in Snow Light Snow
7:53 PM 28.9 °F 21.9 °F 28.0 °F 96% 29.92 in 2.0 mi South 6.9 mph - 0.00 in Snow Light Snow
8:29 PM 28.4 °F 22.2 °F 26.6 °F 93% 29.88 in 2.0 mi South 5.8 mph - 0.00 in Snow Light Snow
8:41 PM 28.4 °F 20.4 °F 26.6 °F 93% 29.87 in 2.0 mi South 8.1 mph - 0.00 in Snow Light Snow
8:53 PM 28.9 °F 22.8 °F 28.0 °F 96% 29.90 in 2.5 mi South 5.8 mph - 0.00 in Snow Light Snow
9:22 PM 28.4 °F 19.7 °F 28.4 °F 100% 29.88 in 3.0 mi SSW 9.2 mph - 0.00 in Snow Light Snow
9:53 PM 28.9 °F 21.1 °F 28.0 °F 96% 29.90 in 3.0 mi SSW 8.1 mph - 0.00 in Snow Light Snow
10:35 PM 28.4 °F 21.2 °F 28.4 °F 100% 29.87 in 2.5 mi SSW 6.9 mph - 0.00 in Snow Light Snow
10:53 PM 28.9 °F 21.1 °F 28.0 °F 96% 29.89 in 2.5 mi SW 8.1 mph - 0.00 in Snow Light Snow
11:00 PM 28.4 °F 20.4 °F 28.4 °F 100% 29.87 in 3.0 mi SW 8.1 mph - 0.00 in Snow Light Snow
11:29 PM 28.4 °F 19.7 °F 28.4 °F 100% 29.87 in 3.0 mi SSW 9.2 mph - 0.00 in Snow Light Snow
11:53 PM 28.9 °F 21.1 °F 28.0 °F 96% 29.89 in 3.0 mi SSW 8.1 mph - 0.00 in Snow Light Snow